STARLINK-37804, 69302

Orbit data source: Space-Track

STARLINK-37804, 69302 is a payload satellite owned by SpaceX/Seattle (US) in SSO that was launched on Sat, 30 May 2026 UTC via an FALCON 9 launch vehicle from the Air Force Western Test Range (AFWTR). Payload-class satellites include a variety of spacecraft equipped with specific instruments for various scientific and technological missions. These include communications satellites like Starlink; space stations such as the ISS; scientific satellites like the Hubble; Earth observation satellites from companies like Planet Labs, Umbra, and HawkEye 360; GPS; miniature CubeSats for education and research; and military/defense satellites.

Loading next visibility...
Identifier
69302, 2026-119G
Orbit
SSO
Country
Flag of USUS
Related business
Manufacturer
SpaceX/Seattle
Mission
Operational Commercial Communications
Bus & Motor
STARLINK V2MO, Unknown motor
Mass
575 kg wet, ~530 kg dry
Launch date (UTC)
2026-05-30 (4 months ago)
Launch vehicle
FALCON 9
Launch site
Air Force Western Test Range (AFWTR)
Object type
Payload
Rocket body
Debris
Shape & HBR
Box + 1 Pan, 17.7 m
Radar Cross Section
41.120 m², Large (>1 m²)

Expand to show TLE details & history
Last TLE update: 17 hours ago

TLE from 17 hours ago
0 STARLINK-37804
1 69302U 26119G   26263.57949246  .00005243  00000-0  16464-3 0  9992
2 69302  97.2833 288.2827 0001139 107.7820 252.3547 15.33437514 18676
Epoch: 2026-09-20T13:54Z
TLE epoch observation values (Epoch: 2026-09-20T13:54:28.148Z)
Latitude
-0.00004°
Longitude
80.19378°
Altitude
468.914 km
Speed
7.632 km/s
True Right ascension
19h 13m 07s
True Declination
0° 00' 00"
Sunlit
Object was in daylight at epoch
Visualization orbit readout
Latitude
Unknown
Longitude
Unknown
Altitude
Unknown
Speed
Unknown
Apparent Right ascension
Unknown
Apparent Declination
Unknown
Sunlit
N/A
Visualization observer readout
Local Sidereal Time
00:08:43
Azimuth
Unknown
Elevation
Unknown
Doppler factor
Unknown
Orbital elements
Apogee altitude
463.287 km
Perigee altitude
461.729 km
Semi-major axis
6,840.645 km
Eccentricity
0.00011
Inclination
97.2833°
RAAN
288.2827°
Arg. of periapsis
107.782°
True anomaly
252.34226°
Mean anomaly
252.3547°
Eccentric anomaly
252.34848°
Mean motion
3.83617 °/min
Orbital period
93.84 mins
BSTAR
0.00016464
Loading maneuver chart data...
Computing Atmospheric mass density...
Loading historical data...
Loading historical data...
Loading historical data...
Loading historical data...
Loading historical data...
Loading historical data...
Loading historical data...

Documentation

Showing up to 5 results
|